When you browse on this site, cookies collect data to enhance your experience and personalize the content and advertising you see.
Visit our Privacy Policy to learn more. By continuing to use the site, you agree to this use of cookies and data.

Hourly Weather Purranque

Today, 8 August, Saturday

Time Temperature Precipitation Wind Pressure Humidity
00:00 +6°C° 0 mm 2 mps 754 mmHg 92%
01:00 +7°C° 0 mm 2 mps 754 mmHg 91%
02:00 +7°C° 0 mm 2 mps 753 mmHg 92%
03:00 +7°C° 0 mm 2 mps 753 mmHg 92%
04:00 +7°C° 0 mm 2 mps 752 mmHg 92%
05:00 +7°C° 0.4 mm 3 mps 752 mmHg 93%
06:00 +7°C° 0.4 mm 3 mps 752 mmHg 94%
07:00 +7°C° 0.4 mm 3 mps 752 mmHg 96%
08:00 +7°C° 1.4 mm 3 mps 752 mmHg 96%
09:00 +7°C° 1.4 mm 3 mps 752 mmHg 96%
10:00 +8°C° 1.4 mm 3 mps 751 mmHg 97%
11:00 +8°C° 1.2 mm 3 mps 752 mmHg 97%
12:00 +8°C° 1.2 mm 3 mps 752 mmHg 97%
13:00 +8°C° 1.2 mm 2 mps 752 mmHg 97%
14:00 +9°C° 0.6 mm 2 mps 752 mmHg 97%
15:00 +9°C° 0.6 mm 2 mps 752 mmHg 98%
16:00 +10°C° 0.6 mm 1 mps 752 mmHg 98%
17:00 +9°C° 0.1 mm 1 mps 752 mmHg 98%
18:00 +9°C° 0.1 mm 1 mps 752 mmHg 98%
19:00 +9°C° 0.1 mm 1 mps 752 mmHg 99%
20:00 +9°C° 1 mm 1 mps 752 mmHg 99%
21:00 +9°C° 1 mm 1 mps 751 mmHg 99%
22:00 +8°C° 1 mm 0 mps 751 mmHg 99%
23:00 +8°C° 2.5 mm 0 mps 751 mmHg 99%

Tomorrow, 9 August, Sunday

Time Temperature Precipitation Wind Pressure Humidity
00:00 +8°C° 2.5 mm 0 mps 751 mmHg 99%
01:00 +8°C° 2.5 mm 0 mps 750 mmHg 99%
02:00 +9°C° 4.1 mm 1 mps 750 mmHg 99%
03:00 +9°C° 4.1 mm 1 mps 749 mmHg 99%
04:00 +7°C° 4.1 mm 2 mps 749 mmHg 99%
05:00 +8°C° 1.5 mm 1 mps 749 mmHg 99%
06:00 +8°C° 1.5 mm 1 mps 749 mmHg 98%
07:00 +8°C° 1.5 mm 1 mps 750 mmHg 98%
08:00 +8°C° 0.8 mm 1 mps 750 mmHg 98%
09:00 +7°C° 0.8 mm 2 mps 750 mmHg 98%
10:00 +7°C° 0.8 mm 2 mps 750 mmHg 97%
11:00 +7°C° 0.1 mm 2 mps 750 mmHg 94%
12:00 +8°C° 0.1 mm 2 mps 751 mmHg 90%
13:00 +8°C° 0.1 mm 2 mps 751 mmHg 87%
14:00 +8°C° 0 mm 2 mps 752 mmHg 84%
15:00 +7°C° 0 mm 2 mps 752 mmHg 82%
16:00 +7°C° 0 mm 2 mps 753 mmHg 79%
17:00 +6°C° 0 mm 2 mps 753 mmHg 82%
18:00 +5°C° 0 mm 2 mps 754 mmHg 85%
19:00 +5°C° 0 mm 1 mps 754 mmHg 88%
20:00 +5°C° 0 mm 1 mps 755 mmHg 89%
21:00 +4°C° 0 mm 2 mps 755 mmHg 90%
22:00 +4°C° 0 mm 2 mps 755 mmHg 91%
23:00 +4°C° 0.7 mm 2 mps 755 mmHg 92%

Day after tomorrow, 10 August, Monday

Time Temperature Precipitation Wind Pressure Humidity
00:00 +4°C° 0.7 mm 2 mps 756 mmHg 93%
01:00 +5°C° 0.7 mm 1 mps 756 mmHg 94%
02:00 +4°C° 0.1 mm 1 mps 756 mmHg 94%
03:00 +4°C° 0.1 mm 1 mps 757 mmHg 94%
04:00 +3°C° 0.1 mm 1 mps 757 mmHg 94%
05:00 +3°C° 0 mm 1 mps 758 mmHg 94%
06:00 +2°C° 0 mm 1 mps 758 mmHg 95%
07:00 +2°C° 0 mm 1 mps 759 mmHg 95%
08:00 +3°C° 0.1 mm 1 mps 759 mmHg 92%
09:00 +4°C° 0.1 mm 2 mps 759 mmHg 88%
10:00 +6°C° 0.1 mm 2 mps 760 mmHg 84%
11:00 +6°C° 0.3 mm 2 mps 759 mmHg 82%
12:00 +7°C° 0.3 mm 3 mps 759 mmHg 79%
13:00 +7°C° 0.3 mm 3 mps 759 mmHg 76%
14:00 +7°C° 0.2 mm 2 mps 759 mmHg 78%
15:00 +7°C° 0.2 mm 2 mps 759 mmHg 81%
16:00 +6°C° 0.2 mm 2 mps 759 mmHg 83%
17:00 +6°C° 0.1 mm 1 mps 759 mmHg 87%
18:00 +5°C° 0.1 mm 1 mps 759 mmHg 90%
19:00 +4°C° 0.1 mm 1 mps 759 mmHg 94%
20:00 +4°C° 0.1 mm 1 mps 759 mmHg 95%
21:00 +4°C° 0.1 mm 1 mps 759 mmHg 96%
22:00 +3°C° 0.1 mm 0 mps 759 mmHg 97%
23:00 +3°C° 0.1 mm 0 mps 759 mmHg 97%

11 August, Tuesday

Time Temperature Precipitation Wind Pressure Humidity
00:00 +3°C° 0.1 mm 1 mps 759 mmHg 97%
01:00 +3°C° 0.1 mm 1 mps 759 mmHg 98%
02:00 +3°C° 0 mm 1 mps 759 mmHg 98%
03:00 +4°C° 0 mm 1 mps 758 mmHg 97%
04:00 +4°C° 0 mm 1 mps 758 mmHg 97%
05:00 +4°C° 0 mm 1 mps 758 mmHg 97%
06:00 +4°C° 0 mm 1 mps 758 mmHg 97%
07:00 +4°C° 0 mm 1 mps 758 mmHg 97%
08:00 +5°C° 0 mm 1 mps 758 mmHg 95%
09:00 +6°C° 0 mm 1 mps 757 mmHg 94%
10:00 +5°C° 0 mm 0 mps 757 mmHg 93%
11:00 +6°C° 0.2 mm 0 mps 757 mmHg 92%
12:00 +6°C° 0.2 mm 0 mps 756 mmHg 91%
13:00 +7°C° 0.2 mm 0 mps 756 mmHg 90%
14:00 +7°C° 0.1 mm 0 mps 755 mmHg 91%
15:00 +7°C° 0.1 mm 0 mps 755 mmHg 92%
16:00 +7°C° 0.1 mm 0 mps 755 mmHg 93%
17:00 +6°C° 0.1 mm 0 mps 755 mmHg 95%
18:00 +5°C° 0.1 mm 0 mps 754 mmHg 96%
19:00 +4°C° 0.1 mm 0 mps 754 mmHg 98%
20:00 +4°C° 0.1 mm 0 mps 754 mmHg 97%
21:00 +4°C° 0.1 mm 0 mps 754 mmHg 97%
22:00 +5°C° 0.1 mm 0 mps 754 mmHg 97%
23:00 +6°C° 0.2 mm 1 mps 754 mmHg 97%

12 August, Wednesday

Time Temperature Precipitation Wind Pressure Humidity
00:00 +6°C° 0.2 mm 1 mps 754 mmHg 98%
01:00 +6°C° 0.2 mm 1 mps 754 mmHg 98%
02:00 +5°C° 0 mm 1 mps 754 mmHg 98%
03:00 +5°C° 0 mm 1 mps 754 mmHg 98%
04:00 +4°C° 0 mm 1 mps 754 mmHg 98%
05:00 +4°C° 0 mm 1 mps 754 mmHg 97%
06:00 +4°C° 0 mm 1 mps 755 mmHg 97%
07:00 +4°C° 0 mm 1 mps 755 mmHg 97%
08:00 +6°C° 0.1 mm 1 mps 755 mmHg 95%
09:00 +7°C° 0.1 mm 1 mps 756 mmHg 92%
10:00 +7°C° 0.1 mm 2 mps 756 mmHg 89%
11:00 +7°C° 0.1 mm 2 mps 756 mmHg 84%
12:00 +8°C° 0.1 mm 2 mps 756 mmHg 80%
13:00 +8°C° 0.1 mm 2 mps 756 mmHg 75%
14:00 +8°C° 0 mm 2 mps 756 mmHg 75%
15:00 +9°C° 0 mm 1 mps 756 mmHg 76%
16:00 +8°C° 0 mm 1 mps 756 mmHg 77%
17:00 +7°C° 0 mm 1 mps 756 mmHg 81%
18:00 +6°C° 0 mm 1 mps 756 mmHg 86%
19:00 +4°C° 0 mm 0 mps 756 mmHg 91%
20:00 +4°C° 0 mm 0 mps 756 mmHg 92%
21:00 +5°C° 0 mm 1 mps 756 mmHg 92%
22:00 +5°C° 0 mm 1 mps 756 mmHg 92%
23:00 +5°C° 0 mm 1 mps 755 mmHg 92%

13 August, Thursday

Time Temperature Precipitation Wind Pressure Humidity
00:00 +5°C° 0 mm 1 mps 755 mmHg 91%
01:00 +5°C° 0 mm 1 mps 755 mmHg 91%
02:00 +5°C° 0.1 mm 1 mps 754 mmHg 92%
03:00 +5°C° 0.1 mm 1 mps 754 mmHg 93%
04:00 +4°C° 0.1 mm 2 mps 753 mmHg 94%
05:00 +4°C° 0.7 mm 2 mps 753 mmHg 95%
06:00 +4°C° 0.7 mm 2 mps 752 mmHg 96%
07:00 +4°C° 0.7 mm 2 mps 752 mmHg 98%
08:00 +5°C° 1.2 mm 2 mps 752 mmHg 98%
09:00 +5°C° 1.2 mm 2 mps 751 mmHg 98%
10:00 +5°C° 1.2 mm 2 mps 751 mmHg 98%
11:00 +6°C° 0.8 mm 2 mps 751 mmHg 98%
12:00 +7°C° 0.8 mm 2 mps 750 mmHg 98%
13:00 +7°C° 0.8 mm 2 mps 750 mmHg 98%
14:00 +8°C° 0.9 mm 2 mps 750 mmHg 96%
15:00 +8°C° 0.9 mm 2 mps 749 mmHg 95%
16:00 +9°C° 0.9 mm 1 mps 749 mmHg 94%
17:00 +8°C° 0.2 mm 1 mps 749 mmHg 95%
18:00 +7°C° 0.2 mm 1 mps 750 mmHg 96%
19:00 +6°C° 0.2 mm 1 mps 750 mmHg 97%
20:00 +5°C° 0 mm 1 mps 750 mmHg 97%
21:00 +4°C° 0 mm 1 mps 750 mmHg 97%
22:00 +3°C° 0 mm 1 mps 750 mmHg 97%
23:00 +4°C° 0 mm 1 mps 749 mmHg 97%
Show more